This site uses a module created by best online poker sites.

BSB police report for Friday, March 27, 2020

"03/26/2020","00:36","220CR0006894","SUSPICIOUS ACTIVITY","SUSPICIOUS ACTIVITY","600 BLK CRYSTAL","",""
"03/26/2020","00:39","220CR0006895","SUSPICIOUS ACTIVITY","SUSPICIOUS ACTIVITY","600 BLK S JACKSON","",""
"03/26/2020","00:40","220CR0006896","JUVENILE MISC","JUVENILE MISC","************","",""
"03/26/2020","00:43","220CR0006897","SUSPICIOUS ACTIVITY","SUSPICIOUS ACTIVITY","2825 FARRAGUT APT D103","",""
"03/26/2020","00:50","220CR0006898","PARKING COMPLAINT","PARKING COMPLAINT","2700 BLK SILVER BOW BLVD","",""
"03/26/2020","03:10","220CR0006899","DISTURBANCE","POSSESS ALCOHOL OR INTOXICANT","609 SILVERBOW HOMES","ARREST(s) MADE",""
"03/26/2020","03:28","220CR0006900","MEDICAL - ASSIST","MEDICAL - ASSIST","************","",""
"03/26/2020","05:02","220CR0006901","T/S","T/S","2300 HARRISON AV","",""
"03/26/2020","07:01","220CR0006902","ACCIDENT","ACCIDENT","2725 S MONTANA ST","",""
"03/26/2020","07:57","220CR0006903","CITIZEN AID","CITIZEN AID","3540 HARRISON","",""
"03/26/2020","08:06","220CR0006904","CITIZEN AID","CITIZEN AID","","",""
"03/26/2020","08:09","220CR0006905","ASSIST OTHER AGENCY","POSSESSION OF DANGEROUS DRUGS","122005 NISSLER RD","ARREST(s) MADE",""
"03/26/2020","08:23","220CR0006906","CRIMINAL TRESPASS","CRIMINAL TRESPASS","652 S IDAHO","",""
"03/26/2020","09:02","220CR0006907","SUSPICIOUS ACTIVITY","SUSPICIOUS ACTIVITY","800 BLK S DAKOTA","",""
"03/26/2020","09:31","220CR0006908","CITIZEN AID","CITIZEN AID","2929 HARRISON AVE","",""
"03/26/2020","09:59","220CR0006909","ALL OTHER","ALL OTHER","652 S IDAHO","",""
"03/26/2020","12:12","220CR0006910","DISTURBANCE","DISTURBANCE","2701 1/2 YALE AVE","",""
"03/26/2020","12:12","220CR0006911","THEFT","THEFT, ALL OTHERS","1000 E FRONT","",""
"03/26/2020","12:14","220CR0006912","LED BUSINESS","LED BUSINESS","FOOT PATROL","",""
"03/26/2020","12:26","220CR0006913","LED BUSINESS","LED BUSINESS","RURAL PATROL","",""
"03/26/2020","12:29","220CR0006914","THEFT","THEFT","3901 HARRISON AVE","",""
"03/26/2020","12:37","220CR0006915","UNWANTED PERSON","FAILURE TO DISPERSE","400 S CLARK ST","",""
"03/26/2020","13:30","220CR0006916","SUSPICIOUS ACTIVITY","SUSPICIOUS ACTIVITY","4001 S ROCKER RD","",""
"03/26/2020","13:35","220CR0006917","INFORMATION ONLY","INFORMATION ONLY","3550 S MONTANA","",""
"03/26/2020","13:38","220CR0006918","SUSPICIOUS ACTIVITY","ASSAULT WITH WEAPON","1125 S MAIN APT 107","",""
"03/26/2020","13:40","220CR0006919","SUSPICIOUS ACTIVITY","SUSPICIOUS ACTIVITY","904 W PARK","",""
"03/26/2020","13:57","220CR0006920","MEDICAL - EMERGENCY","MEDICAL - EMERGENCY","100 ASPEN WAY APT E","",""
"03/26/2020","14:10","220CR0006921","MEDICAL - EMERGENCY","MEDICAL - EMERGENCY","1324 HARRISON","",""
"03/26/2020","14:26","220CR0006922","UNWANTED PERSON","UNWANTED PERSON","************","",""
"03/26/2020","14:28","220CR0006923","TRAFFIC","TRAFFIC","LASALLE AND FRANKLIN","",""
"03/26/2020","14:34","220CR0006924","MEDICAL - EMERGENCY","MEDICAL - EMERGENCY","735 S MAIN","",""
"03/26/2020","14:51","220CR0006925","ALARM - FIRE","ALARM - FIRE","1924 PHILLIPS","",""
"03/26/2020","14:54","220CR0006926","ASSIST OTHER AGENCY","ASSIST OTHER AGENCY","184 TRINITY LOOP","",""
"03/26/2020","14:56","220CR0006927","T/S","T/S","NORTHWESTERN PAWN","",""
"03/26/2020","15:02","220CR0006928","WANTED PERSON","CRIMINAL CONTEMPT","5101 S WARREN #8","ARREST(s) MADE",""
"03/26/2020","15:40","220CR0006929","UNWANTED PERSON","UNWANTED PERSON","************","",""
"03/26/2020","15:46","220CR0006930","TRAFFIC HAZARD","TRAFFIC HAZARD","39 TRINITY LOOP","",""
"03/26/2020","15:51","220CR0006931","UNWANTED PERSON","UNWANTED PERSON","************","",""
"03/26/2020","16:12","220CR0006932","THEFT","THEFT, SHOPLIFT","3901 HARRISON AVE","",""
"03/26/2020","16:27","220CR0006933","WANTED PERSON","WANTED PERSON","************","",""
"03/26/2020","16:31","220CR0006934","HARASSMENT","HARASSMENT","1121 W WOOLMAN","",""
"03/26/2020","16:44","220CR0006935","ALL OTHER","ALL OTHER","FRONT AND MONTANA","",""
"03/26/2020","16:45","220CR0006936","UNWANTED PERSON","PROTECTIVE CUSTODY","400 S CLARK","ARREST(s) MADE",""
"03/26/2020","17:03","220CR0006937","ANIMAL COMPLAINT","ANIMAL COMPLAINT","2400 LOCUST ST","",""
"03/26/2020","17:23","220CR0006938","FRAUD","FORGERY/COUNTERFEIT","1940 DEWEY BLVD","",""
"03/26/2020","17:27","220CR0006939","ALL OTHER","ALL OTHER","225 N ALASKA","",""
"03/26/2020","18:15","220CR0006940","SUSPICIOUS ACTIVITY","SUSPICIOUS ACTIVITY","390 LITTLE BASIN CREEK RD","",""
"03/26/2020","18:39","220CR0006941","WELFARE CHECK","WELFARE CHECK","1521 ELM ST","",""
"03/26/2020","18:51","220CR0006942","ASSIST OTHER AGENCY","ASSIST OTHER AGENCY","10 BLK E PARK ST","",""
"03/26/2020","19:21","220CR0006943","SUSPICIOUS ACTIVITY","SUSPICIOUS ACTIVITY","100 BLOCK CURTIS ST","",""
"03/26/2020","19:45","220CR0006944","JUVENILE MISC","JUVENILE MISC","************","",""
"03/26/2020","19:53","220CR0006945","SUSPICIOUS ACTIVITY","SUSPICIOUS ACTIVITY","3901 HARRISON AVE","",""
"03/26/2020","19:57","220CR0006946","THEFT","THEFT","1651 GRAND AVE","",""
"03/26/2020","20:26","220CR0006947","JUVENILE MISC","JUVENILE MISC","************","",""
"03/26/2020","20:33","220CR0006948","DISTURBANCE","DISTURBANCE","711 ZARELDA","",""
"03/26/2020","21:17","220CR0006949","WELFARE CHECK","WELFARE CHECK","1717 HOBSON ST","",""
"03/26/2020","21:24","220CR0006950","SUSPICIOUS ACTIVITY","SUSPICIOUS ACTIVITY","711 ZARELDA","",""
"03/26/2020","21:52","220CR0006951","ALL OTHER","ALL OTHER","BUTTE PLAZA INN","",""
"03/26/2020","21:54","220CR0006952","WELFARE CHECK","WELFARE CHECK","115 RAMPART DR NBR 204","",""
"03/26/2020","22:12","220CR0006953","ACCIDENT-MHP","ACCIDENT-MHP","I15 MM 122 WB","",""
"03/26/2020","22:36","220CR0006954","ALL OTHER","ALL OTHER","1125 S MAIN #408","",""
"03/26/2020","22:56","220CR0006955","T/S","T/S","MT HIGHLAND DR AND MARQUIS DR","",""
"03/26/2020","23:44","220CR0006956","DISTURBANCE-NOISE","DISTURBANCE-NOISE","1100 BLK CALEDONIA ST","",""
"03/27/2020","00:00","220CR0006957","CITIZEN AID","CITIZEN AID","400 S CLARK ST","",""
"03/27/2020","00:03","220CR0006958","DISTURBANCE-NOISE","DISTURBANCE-NOISE","629 S IDAHO","",""
"03/27/2020","00:24","220CR0006959","SUSPICIOUS ACTIVITY","SUSPICIOUS ACTIVITY","1324 HARRISON","",""
"03/27/2020","01:24","220CR0006960","UNWANTED PERSON","UNWANTED PERSON","************","",""
"03/27/2020","03:20","220CR0006961","UNWANTED PERSON","UNWANTED PERSON","************","",""
"03/27/2020","03:47","220CR0006962","SUICIDE ATTEMPT/THREAT","SUICIDE ATTEMPT/THREAT","************","",""
"03/27/2020","04:13","220CR0006963","UNWANTED PERSON","UNWANTED PERSON","************","",""
"03/27/2020","04:30","220CR0006964","ALARM - BURGLARY","ALARM - BURGLARY","************","",""
 

BSB police report for Thursday, March 26, 2020

"03/25/2020","00:45","220CR0006841","DISTURBANCE-NOISE","DISTURBANCE-NOISE","16 W GALENA #F","",""
"03/25/2020","01:31","220CR0006842","SUSPICIOUS ACTIVITY","SUSPICIOUS ACTIVITY","COBBAN AND FARRAGUT","",""
"03/25/2020","02:06","220CR0006843","MEDICAL - EMERGENCY","MEDICAL - EMERGENCY","915 W SILVER","",""
"03/25/2020","02:19","220CR0006844","FIRE - OTHER","FIRE - OTHER","1000 GRIZZLY TR","",""
"03/25/2020","02:22","220CR0006845","ANIMAL COMPLAINT","ANIMAL COMPLAINT","3605 HARRISON AARONS","",""
"03/25/2020","03:09","220CR0006846","ACCIDENT-MHP","ACCIDENT-MHP","I90 MM 233 WB","",""
"03/25/2020","04:10","220CR0006847","ASSIST OTHER AGENCY","ASSIST OTHER AGENCY","I90 MM236 WBND","",""
"03/25/2020","06:08","220CR0006848","SUSPICIOUS ACTIVITY","SUSPICIOUS ACTIVITY","1302 E SECOND ST","",""
"03/25/2020","07:35","220CR0006849","FRAUD","FRAUD","2630 OREGON AVE","",""
"03/25/2020","08:29","220CR0006850","SUSPICIOUS ACTIVITY","SUSPICIOUS ACTIVITY","2000 HARRISON AVE","",""
"03/25/2020","08:34","220CR0006851","MEDICAL - EMERGENCY","MEDICAL - EMERGENCY","525 S MAIN","",""
"03/25/2020","08:40","220CR0006852","VANDALISM/CRIMINAL MISCHIEF","VANDALISM/CRIMINAL MISCHIEF","2710 GEORGE ST","",""
"03/25/2020","09:10","220CR0006853","ASSIST OTHER AGENCY","ASSIST OTHER AGENCY","700 CASEY/DEPT FAMILY SERVICE","",""
"03/25/2020","10:33","220CR0006854","MEDICAL - EMERGENCY","MEDICAL - EMERGENCY","910 EVANS APT D6","",""
"03/25/2020","11:03","220CR0006855","MEDICAL - EMERGENCY","MEDICAL - EMERGENCY","100 GARDENS WAY","",""
"03/25/2020","12:00","220CR0006856","ALARM - MEDICAL","ALARM - MEDICAL","************","",""
"03/25/2020","12:09","220CR0006857","HARASSMENT","HARASSMENT","2607 HARRISON","",""
"03/25/2020","12:15","220CR0006858","MEDICAL - ASSIST","MEDICAL - ASSIST","************","",""
"03/25/2020","12:39","220CR0006859","WELFARE CHECK","WELFARE CHECK","1366 SUNSET","",""
"03/25/2020","12:55","220CR0006860","LED BUSINESS","LED BUSINESS","58 W PARK ST PARKING GARAGE","",""
"03/25/2020","12:57","220CR0006861","ALL OTHER","ALL OTHER","99 BURNING TREE","",""
"03/25/2020","13:05","220CR0006862","BUSINESS CHECK","BUSINESS CHECK","CLARKS PARK","",""
"03/25/2020","13:14","220CR0006863","SUSPICIOUS ACTIVITY","SUSPICIOUS ACTIVITY","2706 GEORGE","",""
"03/25/2020","13:28","220CR0006865","ALL OTHER","ALL OTHER","2218 ELM ST","",""
"03/25/2020","13:28","220CR0006864","MEDICAL - ASSIST","MEDICAL - ASSIST","************","",""
"03/25/2020","13:53","220CR0006866","ANIMAL COMPLAINT","ANIMAL COMPLAINT","","",""
"03/25/2020","13:54","220CR0006867","VANDALISM/CRIMINAL MISCHIEF","VANDALISM/CRIMINAL MISCHIEF","225 N ALASKA","",""
"03/25/2020","13:59","220CR0006868","ASSIST OTHER AGENCY","ASSIST OTHER AGENCY","1321 W ALUMINUM","",""
"03/25/2020","14:21","220CR0006869","T/S","T/S @ WYNNE AVE AND DEWEY BLVD","WYNNE AVE AND DEWEY BLVD","",""
"03/25/2020","14:49","220CR0006871","HARASSMENT","HARASSMENT","1123 NEVADA","",""
"03/25/2020","14:50","220CR0006870","FRAUD","FRAUD","1736 LONGFELLOW TRLR 6","",""
"03/25/2020","14:56","220CR0006872","SEXUAL ASSAULT","SEXUAL ASSAULT","************","",""
"03/25/2020","15:04","220CR0006873","STOLEN VEHICLE","STOLEN VEHICLE","225 N ALASKA","",""
"03/25/2020","15:18","220CR0006875","ALARM - BURGLARY","ALARM - BURGLARY","************","",""
"03/25/2020","15:57","220CR0006876","FIRE- GAS ODOR","FIRE- GAS ODOR","628 1/2 W GRANITE ST","",""
"03/25/2020","16:11","220CR0006877","ASSAULT","ASSAULT","************","",""
"03/25/2020","16:39","220CR0006878","WELFARE CHECK","WELFARE CHECK","1818 THORTON","",""
"03/25/2020","17:43","220CR0006879","HARASSMENT","HARASSMENT","910 EVANS AVE APT A3","",""
"03/25/2020","17:44","220CR0006880","DRUGS","DRUGS","************","",""
"03/25/2020","17:59","220CR0006881","SUSPICIOUS ACTIVITY","SUSPICIOUS ACTIVITY","2660 COLUSA ST","",""
"03/25/2020","18:37","220CR0006882","MEDICAL - EMERGENCY","MEDICAL - EMERGENCY","321 N JACKSON APT C","",""
"03/25/2020","20:06","220CR0006883","UNWANTED PERSON","UNWANTED PERSON","************","",""
"03/25/2020","20:29","220CR0006884","SUSPICIOUS ACTIVITY","SUSPICIOUS ACTIVITY","2626 GEORGE ST","",""
"03/25/2020","20:36","220CR0006885","ALL OTHER","ALL OTHER","5101 S WARREN #10","",""
"03/25/2020","21:12","220CR0006886","HARASSMENT","HARASSMENT","620 1/2 S IDAHO","",""
"03/25/2020","21:38","220CR0006887","MEDICAL - EMERGENCY","MEDICAL - EMERGENCY","815 S MAIN","",""
"03/25/2020","22:02","220CR0006889","JUVENILE MISC","JUVENILE MISC","************","",""
"03/25/2020","22:48","220CR0006890","PARKING COMPLAINT","PARKING COMPLAINT","1005 W GRANITE","",""
"03/25/2020","22:51","220CR0006891","MEDICAL - EMERGENCY","MEDICAL - EMERGENCY","2952 TEAL ST #10","",""
"03/25/2020","23:03","220CR0006892","MEDICAL - EMERGENCY","MEDICAL - EMERGENCY","2 1/2 E COPPER","",""
"03/25/2020","23:25","220CR0006893","WANTED PERSON","PAROLE VIOLATION","62 W BROADWAY","ARREST(s) MADE",""
"03/26/2020","00:36","220CR0006894","SUSPICIOUS ACTIVITY","SUSPICIOUS ACTIVITY","600 BLK CRYSTAL","",""
"03/26/2020","00:39","220CR0006895","SUSPICIOUS ACTIVITY","SUSPICIOUS ACTIVITY","600 BLK S JACKSON","",""
"03/26/2020","00:40","220CR0006896","JUVENILE MISC","JUVENILE MISC","************","",""
"03/26/2020","00:43","220CR0006897","SUSPICIOUS ACTIVITY","SUSPICIOUS ACTIVITY","2825 FARRAGUT APT D103","",""
"03/26/2020","00:50","220CR0006898","PARKING COMPLAINT","PARKING COMPLAINT","2700 BLK SILVER BOW BLVD","",""
"03/26/2020","03:10","220CR0006899","DISTURBANCE","POSSESS ALCOHOL OR INTOXICANT","609 SILVERBOW HOMES","ARREST(s) MADE",""
"03/26/2020","03:28","220CR0006900","MEDICAL - ASSIST","MEDICAL - ASSIST","************","",""
"03/26/2020","05:02","220CR0006901","T/S","T/S @ 2300 HARRISON AV","2300 HARRISON AV","",""
 

BSB police report for Wednesday, March 25, 2020

"03/24/2020","00:13","220CR0006789","UNKNOWN PROBLEM","UNKNOWN PROBLEM","1021 GAYLORD","",""
"03/24/2020","00:31","220CR0006790","DISTURBANCE-NOISE","DISTURBANCE-NOISE","825 8TH STREET","",""
"03/24/2020","01:44","220CR0006791","SUICIDE ATTEMPT/THREAT","SUICIDE ATTEMPT/THREAT","************","",""
"03/24/2020","02:03","220CR0006792","MEDICAL - ASSIST","MEDICAL - ASSIST","************","",""
"03/24/2020","02:12","220CR0006793","SUSPICIOUS ACTIVITY","SUSPICIOUS ACTIVITY","EXCELSIOR AND GALENA","",""
"03/24/2020","02:17","220CR0006794","SUSPICIOUS ACTIVITY","SUSPICIOUS ACTIVITY","4 MILE AT MARGARET LEARY SCH","",""
"03/24/2020","03:59","220CR0006795","THEFT","THEFT","2305 CONTINENTAL DR","",""
"03/24/2020","04:47","220CR0006796","SUSPICIOUS ACTIVITY","SUSPICIOUS ACTIVITY","2201 HARRISON AVE","",""
"03/24/2020","07:38","220CR0006797","ILLEGAL SHOOTING","ILLEGAL SHOOTING","1400 BLK HARRISON","",""
"03/24/2020","08:50","220CR0006798","VANDALISM/CRIMINAL MISCHIEF","CRIMINAL MISCHIEF","845 S WYOMING ST","",""
"03/24/2020","08:55","220CR0006799","CITIZEN AID","CITIZEN AID","225 N ALASKA","",""
"03/24/2020","08:59","220CR0006800","MEDICAL - EMERGENCY","MEDICAL - EMERGENCY","2319 PRINCETON","",""
"03/24/2020","09:16","220CR0006801","CIVIL PAPER SERVICE","CIVIL PAPER SERVICE","1250 W WOOLMAN","",""
"03/24/2020","09:20","220CR0006802","MEDICAL - EMERGENCY","MEDICAL - EMERGENCY","2319 PINE ST","",""
"03/24/2020","10:32","220CR0006803","MEDICAL - EMERGENCY","MEDICAL - EMERGENCY","223 S JACKSON","",""
"03/24/2020","10:47","220CR0006804","DETENTION BUSINESS","DETENTION BUSINESS","************","",""
"03/24/2020","10:58","220CR0006805","THEFT","THEFT FROM BUILDINGS","825 9TH ST","",""
"03/24/2020","11:15","220CR0006806","CHILD ABUSE","CHILD ABUSE","************","",""
"03/24/2020","11:22","220CR0006807","WELFARE CHECK","WELFARE CHECK","EXCELSIOR AND W PARK","",""
"03/24/2020","11:39","220CR0006808","ALARM - BURGLARY","ALARM - BURGLARY","************","",""
"03/24/2020","12:24","220CR0006809","LED BUSINESS","LED BUSINESS","UPTOWN BUTTE FOOT PATROL","",""
"03/24/2020","12:54","220CR0006810","WELFARE CHECK","WELFARE CHECK","17 N ARIZONA","",""
"03/24/2020","13:06","220CR0006811","LED BUSINESS","LED BUSINESS","RURAL PATROL","",""
"03/24/2020","13:22","220CR0006812","JUVENILE MISC","JUVENILE MISC","************","",""
"03/24/2020","13:26","220CR0006813","MEDICAL - EMERGENCY","MEDICAL - EMERGENCY","3701 ELIZABETH WARREN","",""
"03/24/2020","13:34","220CR0006814","ACCIDENT","ACCIDENT","3901 HARRISON AVE","",""
"03/24/2020","13:59","220CR0006815","OPEN BUILDING","OPEN BUILDING","1221 FARRELL","",""
"03/24/2020","14:19","220CR0006816","ACCIDENT","DRIVE WHILE SUSP. OR REVOKED","EXCELSIOR & PARK","",""
"03/24/2020","14:27","220CR0006817","ACCIDENT","ACCIDENT","STATE ST AND CORNELL ST","",""
"03/24/2020","14:36","220CR0006818","MEDICAL - EMERGENCY","MEDICAL - EMERGENCY","1515 OREGON AVE #706","",""
"03/24/2020","14:41","220CR0006819","ALARM - ROBBERY","ALARM - ROBBERY","800 W PLATINUM ST","",""
"03/24/2020","14:47","220CR0006820","WELFARE CHECK","WELFARE CHECK","1000 E FRONT ST","",""
"03/24/2020","14:53","220CR0006821","THEFT","THEFT FROM BUILDINGS","1003 MARYLAND AVE","",""
"03/24/2020","14:56","220CR0006822","UNKNOWN PROBLEM","UNKNOWN PROBLEM","GOLD AND MAIN","",""
"03/24/2020","15:07","220CR0006823","MEDICAL - EMERGENCY","MEDICAL - EMERGENCY","2830 SILVER BOW BLVD","",""
"03/24/2020","15:30","220CR0006824","ABANDONED VEHICLE- PRIVATE PRO","ABANDONED VEHICLE- PRIVATE PRO","3541 HARRISON AVE","",""
"03/24/2020","15:52","220CR0006825","FRAUD","FRAUD","62 W BROADWAY","",""
"03/24/2020","15:52","220CR0006826","STOLEN VEHICLE","STOLEN VEHICLE","315 S JACKSON APT A","",""
"03/24/2020","15:55","220CR0006827","THEFT","THEFT, ALL OTHERS","913 EMPIRE","",""
"03/24/2020","15:58","220CR0006828","WELFARE CHECK","WELFARE CHECK","1ST AND MARYLAND","",""
"03/24/2020","17:10","220CR0006829","VANDALISM/CRIMINAL MISCHIEF","VANDALISM/CRIMINAL MISCHIEF","2107 CORNELL ST","",""
"03/24/2020","17:23","220CR0006830","CIVIL STANDBY","CIVIL STANDBY","2107 CORNELL DAYS INN","",""
"03/24/2020","17:23","220CR0006831","MEDICAL - EMERGENCY","MEDICAL - EMERGENCY","3745 HARRISON AVE","",""
"03/24/2020","17:24","220CR0006832","HARASSMENT","HARASSMENT","2023 WALL","",""
"03/24/2020","17:32","220CR0006833","ASSAULT","ASSAULT","************","",""
"03/24/2020","18:24","220CR0006834","ACCIDENT- INJURY(MHP)","ACCIDENT- INJURY(MHP)","3745 HARRISON AVE","",""
"03/24/2020","19:17","220CR0006835","DISTURBANCE","DISTURBANCE","32 S MAIN","",""
"03/24/2020","19:26","220CR0006836","DISORDERLY CONDUCT","PROTECTIVE CUSTODY","500 S MAIN","ARREST(s) MADE",""
"03/24/2020","19:46","220CR0006837","DISTURBANCE","DISTURBANCE","5100 S WARREN #53","",""
"03/24/2020","20:02","220CR0006838","THEFT","THEFT","120 N MONTANA APT 1A","",""
"03/24/2020","22:05","220CR0006839","WELFARE CHECK","WELFARE CHECK","16 W GALENA #F","",""
"03/24/2020","22:20","220CR0006840","WELFARE CHECK","WELFARE CHECK","824 S MAIN","",""
"03/25/2020","00:45","220CR0006841","DISTURBANCE-NOISE","DISTURBANCE-NOISE","16 W GALENA #F","",""
"03/25/2020","01:31","220CR0006842","SUSPICIOUS ACTIVITY","SUSPICIOUS ACTIVITY","COBBAN AND FARRAGUT","",""
"03/25/2020","02:06","220CR0006843","MEDICAL - EMERGENCY","MEDICAL - EMERGENCY","915 W SILVER","",""
"03/25/2020","02:19","220CR0006844","FIRE - OTHER","FIRE - OTHER","1000 GRIZZLY TR","",""
"03/25/2020","02:22","220CR0006845","ANIMAL COMPLAINT","ANIMAL COMPLAINT","3605 HARRISON AARONS","",""
"03/25/2020","03:09","220CR0006846","ACCIDENT-MHP","ACCIDENT-MHP","I90 MM 233 WB","",""
"03/25/2020","04:10","220CR0006847","ASSIST OTHER AGENCY","ASSIST OTHER AGENCY","I90 MM236 WBND","",""
"03/25/2020","06:08","220CR0006848","SUSPICIOUS ACTIVITY","SUSPICIOUS ACTIVITY","1302 E SECOND ST","",""
 

BSB police report for Tuesday, March 24, 2020

"03/23/2020","00:50","220CR0006729","ALL OTHER","ALL OTHER","400 S CLARK ST","",""
"03/23/2020","01:16","220CR0006730","DISTURBANCE-NOISE","DISTURBANCE-NOISE","GOLD AND MAIN","",""
"03/23/2020","02:10","220CR0006731","SUSPICIOUS ACTIVITY","SUSPICIOUS ACTIVITY","CHULA ST AND LEXINGTON AVE","",""
"03/23/2020","03:39","220CR0006732","UNWANTED PERSON","UNWANTED PERSON","************","",""
"03/23/2020","07:24","220CR0006733","SUSPICIOUS ACTIVITY","SUSPICIOUS ACTIVITY","1725 WHITMAN AVE","",""
"03/23/2020","09:29","220CR0006734","ALARM - MEDICAL","ALARM - MEDICAL","************","",""
"03/23/2020","09:34","220CR0006735","ACCIDENT - INJURY","ACCIDENT - INJURY","600 SHIELDS","",""
"03/23/2020","09:34","220CR0006736","CITIZEN AID","CITIZEN AID","191 KELSEY LANE","",""
"03/23/2020","09:53","220CR0006737","CIVIL PAPER SERVICE","CIVIL PAPER SERVICE","32 E GRANITE APT 3C","",""
"03/23/2020","10:01","220CR0006738","DETENTION BUSINESS","DETENTION BUSINESS","************","",""
"03/23/2020","10:06","220CR0006739","DISTURBANCE","DISTURBANCE","3210 BUSCH ST","",""
"03/23/2020","10:16","220CR0006740","SUSPICIOUS ACTIVITY","SUSPICIOUS ACTIVITY","1315 HARRISON AVE","",""
"03/23/2020","10:46","220CR0006741","DETENTION BUSINESS","DETENTION BUSINESS","************","",""
"03/23/2020","10:48","220CR0006742","DISTURBANCE","PFMA - MINOR INJ/PHYSICAL CONT","1484 SUNRISE LANE","",""
"03/23/2020","11:02","220CR0006743","HARASSMENT","HARASSMENT","223 S JACKSON","",""
"03/23/2020","11:22","220CR0006744","SUSPICIOUS ACTIVITY","SUSPICIOUS ACTIVITY","2720 ELM ST","",""
"03/23/2020","11:39","220CR0006745","UNWANTED PERSON","UNWANTED PERSON","************","",""
"03/23/2020","11:54","220CR0006747","ALARM - BURGLARY","ALARM - BURGLARY","************","",""
"03/23/2020","11:55","220CR0006746","STOLEN VEHICLE","MOTOR VEHICLE THEFT","699 CENTENNIAL AVE","",""
"03/23/2020","11:55","220CR0006748","ACCIDENT","ACCIDENT","1000 GRIZZLEY TRAIL","",""
"03/23/2020","12:05","220CR0006749","ATL","ATL","JEFFERSON COUNTY","",""
"03/23/2020","12:30","220CR0006750","HIT AND RUN","HIT AND RUN","2905 BLACKTAIL LOOP RD","",""
"03/23/2020","12:36","220CR0006751","LED BUSINESS","LED BUSINESS","FOOT PATROL","",""
"03/23/2020","12:37","220CR0006752","DETENTION BUSINESS","DETENTION BUSINESS","************","",""
"03/23/2020","12:40","220CR0006753","DISTURBANCE","DISTURBANCE","ARIZONA AND CURTIS","",""
"03/23/2020","12:50","220CR0006754","UNWANTED PERSON","UNWANTED PERSON","************","",""
"03/23/2020","13:12","220CR0006755","UNWANTED PERSON","UNWANTED PERSON","************","",""
"03/23/2020","13:18","220CR0006756","WELFARE CHECK","WELFARE CHECK","303 W QUARTZ # 2","",""
"03/23/2020","13:34","220CR0006757","INFORMATION ONLY","INFORMATION ONLY","LEGION OASIS #1601","",""
"03/23/2020","14:15","220CR0006758","WELFARE CHECK","WELFARE CHECK","28 N CLARK","",""
"03/23/2020","14:30","220CR0006759","HARASSMENT","HARASSMENT","225 N ALASKA","",""
"03/23/2020","14:38","220CR0006760","TRAFFIC HAZARD","TRAFFIC HAZARD","900 BLK S COLORADO","",""
"03/23/2020","14:58","220CR0006761","ABANDONED VEHICLE","ABANDONED VEHICLE","70 MISSOULA AVE","",""
"03/23/2020","15:07","220CR0006762","ABANDONED VEHICLE","ABANDONED VEHICLE","715 S MAIN","",""
"03/23/2020","15:22","220CR0006763","ACCIDENT","ACCIDENT","2324 S MONTANA","",""
"03/23/2020","15:24","220CR0006764","STOLEN VEHICLE","STOLEN VEHICLE","","",""
"03/23/2020","15:27","220CR0006765","CIVIL STANDBY","CIVIL STANDBY","633 1/2 S MONTANA","",""
"03/23/2020","15:40","220CR0006766","SUSPICIOUS ACTIVITY","SUSPICIOUS ACTIVITY","1603 PHILLIPS AVE","",""
"03/23/2020","15:57","220CR0006767","CITIZEN AID","CITIZEN AID","2300 BLK HARVARD","",""
"03/23/2020","16:01","220CR0006768","THEFT","BURGLARY, RESIDENCE","406 E MERCURY","",""
"03/23/2020","16:11","220CR0006769","UNKNOWN PROBLEM","UNKNOWN PROBLEM","2009 LOCUST ST","",""
"03/23/2020","16:57","220CR0006770","ALL OTHER","ALL OTHER","","",""
"03/23/2020","17:10","220CR0006771","MEDICAL - EMERGENCY","MEDICAL - EMERGENCY","121 N IDAHO APT A","",""
"03/23/2020","17:16","220CR0006772","FIRE - STRUCTURE","FIRE - STRUCTURE","1237 FARRELL ST","",""
"03/23/2020","17:21","220CR0006773","MEDICAL - EMERGENCY","MEDICAL - EMERGENCY","610 E PLATINUM","",""
"03/23/2020","17:32","220CR0006774","JUVENILE RUNAWAY","UNGOVERNABLE JUVENILE","5100 S WARREN #53","ARREST(s) MADE",""
"03/23/2020","17:37","220CR0006775","ASSIST OTHER AGENCY","ASSIST OTHER AGENCY","DELMOE LAKE","",""
"03/23/2020","17:50","220CR0006776","SUSPICIOUS ACTIVITY","SUSPICIOUS ACTIVITY","504 MULLER APTS /W GRANITE #30","",""
"03/23/2020","17:51","220CR0006777","ALARM - BURGLARY","ALARM - BURGLARY","************","",""
"03/23/2020","18:08","220CR0006778","THEFT","THEFT","223 S JACKSON ST","",""
"03/23/2020","18:13","220CR0006779","ABANDONED VEHICLE","ABANDONED VEHICLE","600 W GALENA","",""
"03/23/2020","18:18","220CR0006780","THEFT","THEFT, SHOPLIFT","3901 HARRISON AVE","",""
"03/23/2020","19:08","220CR0006781","ALARM - BURGLARY","ALARM - BURGLARY","************","",""
"03/23/2020","19:23","220CR0006782","SUSPICIOUS ACTIVITY","SUSPICIOUS ACTIVITY","633 1/2 S MONTANA","",""
"03/23/2020","20:34","220CR0006783","BUSINESS CHECK","BUSINESS CHECK","2711 HARRISON AVE","",""
"03/23/2020","21:06","220CR0006784","MEDICAL - EMERGENCY","MEDICAL - EMERGENCY","5100 S WARREN #53","",""
"03/23/2020","21:41","220CR0006785","ALARM - BURGLARY","ALARM - BURGLARY","************","",""
"03/23/2020","21:58","220CR0006786","UNWANTED PERSON","FAILURE TO DISPERSE","610 E PLATINUM","ARREST(s) MADE",""
"03/23/2020","22:55","220CR0006788","ALL OTHER","ALL OTHER","223 S JACKSON","",""
"03/24/2020","00:13","220CR0006789","UNKNOWN PROBLEM","UNKNOWN PROBLEM","1021 GAYLORD","",""
"03/24/2020","00:31","220CR0006790","DISTURBANCE-NOISE","DISTURBANCE-NOISE","825 8TH STREET","",""
"03/24/2020","01:44","220CR0006791","SUICIDE ATTEMPT/THREAT","SUICIDE ATTEMPT/THREAT","************","",""
"03/24/2020","02:03","220CR0006792","MEDICAL - ASSIST","MEDICAL - ASSIST","************","",""
"03/24/2020","02:12","220CR0006793","SUSPICIOUS ACTIVITY","SUSPICIOUS ACTIVITY","EXCELSIOR AND GALENA","",""
"03/24/2020","02:17","220CR0006794","SUSPICIOUS ACTIVITY","SUSPICIOUS ACTIVITY","4 MILE AT MARGARET LEARY SCH","",""
"03/24/2020","03:59","220CR0006795","THEFT","THEFT","2305 CONTINENTAL DR","",""
"03/24/2020","04:47","220CR0006796","SUSPICIOUS ACTIVITY","SUSPICIOUS ACTIVITY","2201 HARRISON AVE","",""
 

BSB police report for Monday, 23, 2020

"03/20/2020","01:22","220CR0006578","ASSAULT","AGGRAVATED ASSAULT","1340 HARRISON AVE","",""
"03/20/2020","04:18","220CR0006579","ACCIDENT","ACCIDENT","RANCHLAND PACKING","",""
"03/20/2020","05:25","220CR0006580","SUSPICIOUS ACTIVITY","SUSPICIOUS ACTIVITY","59 BENNETT","",""
"03/20/2020","05:31","220CR0006581","SUSPICIOUS ACTIVITY","SUSPICIOUS ACTIVITY","614 W SILVER","",""
"03/20/2020","06:57","220CR0006582","MAN WITH A GUN","MAN WITH A GUN","************","",""
"03/20/2020","06:59","220CR0006583","THEFT","THEFT","3825 GREEN LANE","",""
"03/20/2020","09:44","220CR0006584","DETENTION BUSINESS","DETENTION BUSINESS","************","",""
"03/20/2020","10:01","220CR0006585","ASSIST OTHER AGENCY","ASSIST OTHER AGENCY","I90 MM 229 E BND","",""
"03/20/2020","10:03","220CR0006586","MEDICAL - EMERGENCY","MEDICAL - EMERGENCY","2830 SILVERBOW BLVD","",""
"03/20/2020","11:02","220CR0006587","THEFT","THEFT","1036 S UTAH","",""
"03/20/2020","11:22","220CR0006588","SUSPICIOUS ACTIVITY","SUSPICIOUS ACTIVITY","1100 E FRONT","",""
"03/20/2020","11:33","220CR0006589","ALARM - MEDICAL","ALARM - MEDICAL","************","",""
"03/20/2020","11:48","220CR0006590","STOLEN VEHICLE","STOLEN VEHICLE","811 S COLORADO","",""
"03/20/2020","12:23","220CR0006591","ANIMAL COMPLAINT","ANIMAL COMPLAINT","270 ROOSEVELT DRIVE","",""
"03/20/2020","12:36","220CR0006592","ANIMAL COMPLAINT","ANIMAL COMPLAINT","BATTLE RIDGE RD ANDGERMAN GULC","",""
"03/20/2020","13:04","220CR0006593","LED BUSINESS","LED BUSINESS","FOOT PATROL","",""
"03/20/2020","13:11","220CR0006594","WELFARE CHECK","WELFARE CHECK","2830 SILVERBOW BLVD","",""
"03/20/2020","13:58","220CR0006595","ABANDONED VEHICLE","ABANDONED VEHICLE","911 EMPIRE","",""
"03/20/2020","15:12","220CR0006596","THEFT","THEFT","225 N ALASKA","",""
"03/20/2020","15:32","220CR0006597","SUSPICIOUS ACTIVITY","SUSPICIOUS ACTIVITY","2500 MASSACHUSETTS AVE","",""
"03/20/2020","16:10","220CR0006598","STOLEN VEHICLE","MOTOR VEHICLE THEFT","531 S MONTANA","ARREST(s) MADE",""
"03/20/2020","16:40","220CR0006599","DISTURBANCE","DISTURBANCE","105 W PORPHRY ST","",""
"03/20/2020","17:51","220CR0006600","THEFT","THEFT","1551 DUNDEE ST","",""
"03/20/2020","18:53","220CR0006601","ALARM - FIRE","ALARM - FIRE","1819 PRINCETON ST","",""
"03/20/2020","19:46","220CR0006602","UNWANTED PERSON","UNWANTED PERSON","************","",""
"03/20/2020","20:04","220CR0006603","T/S","T/S","PARK AND MONTANA","",""
"03/20/2020","20:32","220CR0006604","MEDICAL - EMERGENCY","MEDICAL - EMERGENCY","1001 W GRANITE","",""
"03/20/2020","21:08","220CR0006605","DISTURBANCE","DISTURBANCE","931 N MAIN ST","",""
"03/20/2020","21:14","220CR0006606","DISTURBANCE","PFMA - MINOR INJ/PHYSICAL CONT","633 1/2 S MONTANA","ARREST(s) MADE",""
"03/20/2020","22:08","220CR0006607","WELFARE CHECK","WELFARE CHECK","1642 HANCOCK AVE","",""
"03/20/2020","22:12","220CR0006608","ILLEGAL SHOOTING","ILLEGAL SHOOTING","605 W DALY ST","",""
"03/20/2020","22:25","220CR0006609","SUSPICIOUS ACTIVITY","SUSPICIOUS ACTIVITY","1108 W BROADWAY","",""
"03/20/2020","23:21","220CR0006611","ALL OTHER","ALL OTHER","2255 S DRIVE","",""
"03/20/2020","23:32","220CR0006612","LED BUSINESS","LED BUSINESS","155 W QUARTZ","",""
"03/20/2020","23:37","220CR0006613","MISSING PERSON","MISSING PERSON","************","",""
"03/20/2020","23:53","220CR0006614","T/S","T/S @ 1920 HARRISON SHERWIN WILLIAMS","1920 HARRISON SHERWIN WILLIAMS","",""
"03/20/2020","23:54","220CR0006615","T/S","T/S","3700 HARRISON","",""
"03/21/2020","00:12","220CR0006616","SUSPICIOUS ACTIVITY","SUSPICIOUS ACTIVITY","1720 THOMAS","",""
"03/21/2020","01:01","220CR0006617","SUSPICIOUS ACTIVITY","SUSPICIOUS ACTIVITY","GEORGE AND SHERMAN","",""
"03/21/2020","01:13","220CR0006618","SUSPICIOUS ACTIVITY","SUSPICIOUS ACTIVITY","CENTENNIAL AND S EXCEL","",""
"03/21/2020","01:19","220CR0006619","MEDICAL - EMERGENCY","MEDICAL - EMERGENCY","522 A N WYOMING","",""
"03/21/2020","01:34","220CR0006620","WELFARE CHECK","WELFARE CHECK","531 S DAKOTA","",""
"03/21/2020","01:53","220CR0006621","T/S","T/S","N WYOMING ST AND COPPER ST","",""
"03/21/2020","02:13","220CR0006622","DISTURBANCE-NOISE","DISTURBANCE-NOISE","518 N HENRY ST","",""
"03/21/2020","04:13","220CR0006623","SUSPICIOUS ACTIVITY","SUSPICIOUS ACTIVITY","CENTENNIAL AND S EXCEL","",""
"03/21/2020","05:02","220CR0006624","MEDICAL - EMERGENCY","MEDICAL - EMERGENCY","1122 LEWISHON","",""
"03/21/2020","05:10","220CR0006625","ALL OTHER","ALL OTHER","100 GARDENS WAY #122","",""
"03/21/2020","05:26","220CR0006626","UNWANTED PERSON","UNWANTED PERSON","************","",""
"03/21/2020","05:39","220CR0006627","UNKNOWN PROBLEM","UNKNOWN PROBLEM","","",""
"03/21/2020","05:51","220CR0006628","ALARM - BURGLARY","ALARM - BURGLARY","************","",""
"03/21/2020","06:08","220CR0006629","SUSPICIOUS ACTIVITY","SUSPICIOUS ACTIVITY","1110 JANNY RD","",""
"03/21/2020","08:44","220CR0006630","THEFT","THEFT FROM MOTOR VEHICLE","2293 W DRIVE","",""
"03/21/2020","08:52","220CR0006631","DISTURBANCE","DISTURBANCE","2 1/2 E COPPER","",""
"03/21/2020","08:57","220CR0006632","LED BUSINESS","LED BUSINESS","BSB LED GUN RANGE","",""
"03/21/2020","09:24","220CR0006633","SUSPICIOUS ACTIVITY","SUSPICIOUS ACTIVITY","1205 S MONTANA","",""
"03/21/2020","10:06","220CR0006634","LOST OR STOLEN PROPERTY","LOST OR STOLEN PROPERTY","907 S COLORADO","",""
"03/21/2020","10:13","220CR0006635","UNWANTED PERSON","UNWANTED PERSON","************","",""
"03/21/2020","10:35","220CR0006636","SUSPICIOUS ACTIVITY","SUSPICIOUS ACTIVITY","2500 BLK S MONTANA ST","",""
"03/21/2020","11:11","220CR0006637","DISTURBANCE","DISTURBANCE","2 1/2 E COPPER","",""
"03/21/2020","11:37","220CR0006638","ANIMAL COMPLAINT","ANIMAL COMPLAINT","3115 PHILLIPS ST","",""
"03/21/2020","11:50","220CR0006639","ATL","ATL","I 90 E BND TO I15 S BND","",""
"03/21/2020","12:44","220CR0006640","MEDICAL - EMERGENCY","MEDICAL - EMERGENCY","1221 FARRELL","",""
"03/21/2020","13:18","220CR0006641","MEDICAL - ASSIST","MEDICAL - ASSIST","************","",""
"03/21/2020","13:28","220CR0006642","SUSPICIOUS ACTIVITY","SUSPICIOUS ACTIVITY","3100 BLK HARRISON","",""
"03/21/2020","14:29","220CR0006643","ALARM - FIRE","ALARM - FIRE","610 E PLATINUM","",""
"03/21/2020","14:34","220CR0006644","HARASSMENT","HARASSMENT","1125 S MAIN APT 109","",""
"03/21/2020","14:51","220CR0006645","ALL OTHER","MOTOR VEHICLE THEFT","323 S MONTANA #3","",""
"03/21/2020","15:03","220CR0006646","THEFT","THEFT, SHOPLIFT","3901 HARRISON AVE","",""
"03/21/2020","16:08","220CR0006647","ALARM - BURGLARY","ALARM - BURGLARY","************","",""
"03/21/2020","16:33","220CR0006648","MEDICAL - EMERGENCY","MEDICAL - EMERGENCY","","",""
"03/21/2020","16:33","220CR0006649","MEDICAL - EMERGENCY","MEDICAL - EMERGENCY","2100 HARRISON DERBY","",""
"03/21/2020","16:41","220CR0006650","THEFT","THEFT","1000 E FRONT","",""
"03/21/2020","16:46","220CR0006651","THEFT","CRIMINAL MISCHIEF","3915 PAXSON","",""
"03/21/2020","17:27","220CR0006652","PARKING COMPLAINT","PARKING COMPLAINT","800 BLK W BROADWAY N ALLEY","",""
"03/21/2020","17:32","220CR0006653","SUSPICIOUS ACTIVITY","SUSPICIOUS ACTIVITY","2200 BLK OF WALNUT","",""
"03/21/2020","17:35","220CR0006654","SUSPICIOUS ACTIVITY","SUSPICIOUS ACTIVITY","1121 S WYOMING","",""
"03/21/2020","17:58","220CR0006655","ATL","ATL","CONTINENTAL DRIVE NORTHBOUND","",""
"03/21/2020","18:44","220CR0006656","MEDICAL - EMERGENCY","MEDICAL - EMERGENCY","BROADWAY AND MONTANA","",""
"03/21/2020","19:47","220CR0006657","ALL OTHER","ALL OTHER","220 N WYOMING MOTEL 6","",""
"03/21/2020","19:48","220CR0006658","CIVIL PAPER SERVICE","CIVIL PAPER SERVICE","533 S DAKOTA","",""
"03/21/2020","20:08","220CR0006659","SUSPICIOUS ACTIVITY","SUSPICIOUS ACTIVITY","1800 BLK B STREET ALLEY","",""
"03/21/2020","20:09","220CR0006660","FRAUD","FRAUD","531 S MONTANA ST","",""
"03/21/2020","20:14","220CR0006661","SUSPICIOUS ACTIVITY","SUSPICIOUS ACTIVITY","CENTENNIAL W OF METRO SEWER","",""
"03/21/2020","20:19","220CR0006662","MEDICAL - EMERGENCY","MEDICAL - EMERGENCY","1924 ELM","",""
"03/21/2020","20:20","220CR0006663","DISTURBANCE","DISTURBANCE","516 HOLMES","",""
"03/21/2020","21:29","220CR0006664","DISTURBANCE","DISTURBANCE","1265 FARRELL","",""
"03/21/2020","21:48","220CR0006665","ASSIST OTHER AGENCY","ASSIST OTHER AGENCY","119140 RICK JONES WAY/REC","",""
"03/21/2020","22:00","220CR0006666","MEDICAL - EMERGENCY","MEDICAL - EMERGENCY","229 S WASHINGTON","",""
"03/21/2020","22:06","220CR0006667","WELFARE CHECK","WELFARE CHECK","207 W PARK/LINCOLN APT 25","",""
"03/21/2020","22:52","220CR0006668","SUSPICIOUS ACTIVITY","SUSPICIOUS ACTIVITY","CENTENNIAL AND EXCELSIOR","",""
"03/21/2020","23:05","220CR0006670","SUSPICIOUS ACTIVITY","SUSPICIOUS ACTIVITY","3600 BLK HARRISON","",""
"03/21/2020","23:08","220CR0006671","T/S","OBSTRUCTING A PEACE OFFICER","2600 BLK HARRISON AVE","ARREST(s) MADE",""
"03/21/2020","23:12","220CR0006672","SUSPICIOUS ACTIVITY","SUSPICIOUS ACTIVITY","2800 BLK FARRAGUT","",""
"03/21/2020","23:20","220CR0006673","SUSPICIOUS ACTIVITY","SUSPICIOUS ACTIVITY","1340 HARRISON AVE","",""
"03/21/2020","23:22","220CR0006674","DISTURBANCE","DISTURBANCE","500 BLK W QUARTZ","",""
"03/21/2020","23:43","220CR0006675","ALL OTHER","SEXUAL ASSAULT","************","",""
"03/21/2020","23:51","220CR0006676","SUSPICIOUS ACTIVITY","SUSPICIOUS ACTIVITY","845 S WYOMING ST","",""
"03/22/2020","00:28","220CR0006677","UNKNOWN PROBLEM","UNKNOWN PROBLEM","505 DOWNHILL LN","",""
"03/22/2020","02:02","220CR0006678","ALARM - BURGLARY","ALARM - BURGLARY","************","",""
"03/22/2020","02:14","220CR0006679","DISTURBANCE","DISTURBANCE","1100 BLK CALIFORNIA","",""
"03/22/2020","02:24","220CR0006680","SUSPICIOUS ACTIVITY","CRIMINAL TRESPASS TO PROPERTY","119 ELDERBERRY LANE","",""
"03/22/2020","04:50","220CR0006681","SUSPICIOUS ACTIVITY","SUSPICIOUS ACTIVITY","2703 YALE AVE","",""
"03/22/2020","06:12","220CR0006682","UNWANTED PERSON","UNWANTED PERSON","************","",""
"03/22/2020","06:18","220CR0006683","MEDICAL - EMERGENCY","MEDICAL - EMERGENCY","2830 SILVER BOW BLVD","",""
"03/22/2020","07:19","220CR0006684","SUSPICIOUS ACTIVITY","SUSPICIOUS ACTIVITY","3411 CARTER ST","",""
"03/22/2020","07:57","220CR0006685","ACCIDENT","ACCIDENT","I 15 AT MM 124","",""
"03/22/2020","09:33","220CR0006686","THEFT","THEFT, ALL OTHERS","2320 S DRIVE","",""
"03/22/2020","10:01","220CR0006687","VANDALISM/CRIMINAL MISCHIEF","VANDALISM/CRIMINAL MISCHIEF","2803 KENNEDY","",""
"03/22/2020","10:03","220CR0006688","CIVIL PAPER SERVICE","CIVIL PAPER SERVICE","212 S WASHINGTON","",""
"03/22/2020","10:37","220CR0006689","CIVIL PAPER SERVICE","CIVIL PAPER SERVICE","3105 ATHERTON LANE","",""
"03/22/2020","11:42","220CR0006690","MEDICAL - EMERGENCY","MEDICAL - EMERGENCY","205 W GRANITE #507","",""
"03/22/2020","11:59","220CR0006691","VANDALISM/CRIMINAL MISCHIEF","VANDALISM/CRIMINAL MISCHIEF","29 E CENTER ST","",""
"03/22/2020","12:05","220CR0006692","CIVIL PAPER SERVICE","CIVIL PAPER SERVICE","113 FOX RUN","",""
"03/22/2020","12:10","220CR0006693","LED BUSINESS","LED BUSINESS","BSB GUN RANGE","",""
"03/22/2020","12:37","220CR0006694","ASSAULT","ASSAULT","************","",""
"03/22/2020","12:45","220CR0006695","THEFT","THEFT","507 S MAIN ST","",""
"03/22/2020","13:08","220CR0006696","MEDICAL - EMERGENCY","MEDICAL - EMERGENCY","829 S MONTANA","",""
"03/22/2020","13:21","220CR0006697","ILLEGAL SHOOTING","ILLEGAL SHOOTING","1121 W WOOLMAN","",""
"03/22/2020","13:32","220CR0006698","SUSPICIOUS ACTIVITY","SUSPICIOUS ACTIVITY","303 W COPPER","",""
"03/22/2020","13:57","220CR0006699","THEFT","THEFT FROM BUILDINGS","1370 HARRISON AVE","",""
"03/22/2020","15:09","220CR0006700","MEDICAL - EMERGENCY","MEDICAL - EMERGENCY","1125 S MAIN APT 104","",""
"03/22/2020","15:18","220CR0006701","CITIZEN AID","CITIZEN AID","SANTA CLAUS LANE AND EXCEL","",""
"03/22/2020","16:01","220CR0006702","SUSPICIOUS ACTIVITY","SUSPICIOUS ACTIVITY","2028 CALIFORNIA","",""
"03/22/2020","16:05","220CR0006703","ABANDONED VEHICLE","ABANDONED VEHICLE","610 N ALASKA","",""
"03/22/2020","16:15","220CR0006704","HARASSMENT","HARASSMENT","TOWM PUMP CIVIC CENTER","",""
"03/22/2020","16:42","220CR0006705","SUSPICIOUS ACTIVITY","SUSPICIOUS ACTIVITY","2300 BLK GRAND","",""
"03/22/2020","16:44","220CR0006706","UNKNOWN PROBLEM","UNKNOWN PROBLEM","303 W QUARTZ APT 5","",""
"03/22/2020","16:57","220CR0006707","MEDICAL - EMERGENCY","MEDICAL - EMERGENCY","1515 OREGON AVE APT 408","",""
"03/22/2020","17:17","220CR0006708","THEFT","THEFT","","",""
"03/22/2020","17:30","220CR0006709","ATL","ATL","310 W FRONT","",""
"03/22/2020","17:41","220CR0006710","ALL OTHER","ALL OTHER","225 N ALASKA","",""
"03/22/2020","18:06","220CR0006711","T/S","T/S","901 E FRONT","",""
"03/22/2020","18:34","220CR0006712","SUSPICIOUS ACTIVITY","SUSPICIOUS ACTIVITY","12 E GOLD","",""
"03/22/2020","18:46","220CR0006713","WELFARE CHECK","WELFARE CHECK","225 S ARIZONA","",""
"03/22/2020","19:17","220CR0006714","DISTURBANCE-NOISE","DISTURBANCE-NOISE","ALABAMA AND MERCURY","",""
"03/22/2020","19:22","220CR0006715","FRAUD","FRAUD","1299 HARRISON FAMILY DOLLAR","",""
"03/22/2020","19:45","220CR0006716","JUVENILE MISC","JUVENILE MISC","************","",""
"03/22/2020","19:49","220CR0006717","T/S","T/S @ BROADWAY AND ARIZONA","BROADWAY AND ARIZONA","",""
"03/22/2020","19:55","220CR0006718","THEFT","THEFT","223 S JACKSON","",""
"03/22/2020","20:31","220CR0006719","MEDICAL - EMERGENCY","MEDICAL - EMERGENCY","205 W GRANITE ST #206","",""
"03/22/2020","20:42","220CR0006720","RESTRAINING ORDER VIOLATION","RESTRAINING ORDER VIOLATION","************","",""
"03/22/2020","20:54","220CR0006721","MEDICAL - EMERGENCY","MEDICAL - EMERGENCY","62 W BROADWAY","",""
"03/22/2020","21:04","220CR0006722","SUSPICIOUS ACTIVITY","SUSPICIOUS ACTIVITY","901 S WASHINGTON #29","",""
"03/22/2020","21:05","220CR0006723","SUSPICIOUS ACTIVITY","SUSPICIOUS ACTIVITY","58 W PARK ST PARKING GARAGE","",""
"03/22/2020","21:30","220CR0006724","SUSPICIOUS ACTIVITY","SUSPICIOUS ACTIVITY","2607 HARRISON","",""
"03/22/2020","22:21","220CR0006725","SUSPICIOUS ACTIVITY","SUSPICIOUS ACTIVITY","223 S JACKSON","",""
"03/22/2020","22:23","220CR0006726","SUSPICIOUS ACTIVITY","SUSPICIOUS ACTIVITY","DELAWARE AVE AND FRONT ST","",""
"03/22/2020","22:47","220CR0006727","DRUGS","DRUGS","************","",""
"03/22/2020","23:54","220CR0006728","PROWLER","PROWLER","1601 KAW AVE","",""
"03/23/2020","00:50","220CR0006729","ALL OTHER","ALL OTHER","400 S CLARK ST","",""
"03/23/2020","01:16","220CR0006730","DISTURBANCE-NOISE","DISTURBANCE-NOISE","GOLD AND MAIN","",""
"03/23/2020","02:10","220CR0006731","SUSPICIOUS ACTIVITY","SUSPICIOUS ACTIVITY","CHULA ST AND LEXINGTON AVE","",""
"03/23/2020","03:39","220CR0006732","UNWANTED PERSON","UNWANTED PERSON","************","",""
 

Subcategories

Sunday the 29th. Affiliate Marketing.
Copyright 2012

©